SCP
0 0 0 0 0 0 0 0 0 0 0 0 0 0 0 0 0 0 0 0 0 0 0 0 0 0 0 0 0 0 0 0 0 0 0 0 0 0 0 0 0 0 0 0 0 0 0 0 0 0 0 0 0 0
0 0 0 0 0 0 0 0 0 0 0 0 0 0 0 0 0 0 0 0 0 0 0 0 0 0 0 0 0 -0 0 0 0 0 0 0 0 0 0 0 0 0 0 0 0 0 0 0 0 0 0 0 0 0
0 0 0 0 0 0 0 0 0 0 0 0 0 0 0 0 0 0 0 0 0 0 0 0 0 0 0 0 0 0 0 0 0 0 0 0 0 0 0 0 0 0 0 0 0 0 0 0 0 0 0 0 0 0
0 0 0 0 0 0 0 0 0 0 0 0 0 0 0 0 0 0 0 0 0 0 0 0 0 0 0 0 0 0 0 0 0 0 0 0 0 0 0 0 0 0 0 0 0 0 0 0 0 0 0 0 0 0
0 0 0 0 0 0 0 0 0 0 0 0 0 0 0 0 0 0 0 0 0 0 0 0 0 0 0 0 0 0 0 0 0 0 0 0 0 0 0 0 0 0 0 0 0 0 0 0 0 0 0 0 0 0
0 0 0 0 0 0 0 0 0 0 0 0 0 0 0 0 0 0 0 0 0 0 0 0 0 0 0 0 0 0 0 0 0 0 0 0 0 0 0 0 0 0 0 0 0 0 0 0 0 0 0 0 0 0
0 0 0 0 0 0 0 0 0 0 0 0 0 0 0 0 0 0 0 0 0 0 0 0 0 0 0 0 0 0 0 0 0 0 0 0 0 0 0 0 0 0 0 0 0 0 0 0 0 0 0 0 0 0
0 0 0 0 0 0 0 0 0 0 0 0 0 0 0 0 0 0 0 0 0 0 0 0 0 0 -0 0 0 0 0 0 0 0 0 0 0 0 0 0 0 0 0 0 0 0 0 0 0 0 0 0 0 0
0 0 0 0 0 0 0 0 0 0 0 0 0 0 0 0 0 0 0 0 0 0 0 0 0 0 0 0 0 0 0 0 0 0 0 0 0 0 0 0 0 0 0 0 0 0 0 0 0 0 0 0 0 0
0 0 0 0 0 0 0 0 0 0 0 0 0 0 0 0 0 0 0 0 0 0 0 0 0 0 0 -0 0 0 0 0 0 0 0 0 0 0 0 0 0 0 0 0 0 0 0 0 0 0 0 0 0 0
0 0 0 0 0 0 0 0 0 0 0 0 0 0 0 0 0 0 0 0 0 0 0 0 0 0 -0 0 0 0 0 0 0 0 0 0 0 0 0 0 0 0 0 0 0 0 0 0 0 0 0 0 0 0
0 0 0 0 0 0 0 0 0 0 0 0 0 0 0 0 0 0 0 0 0 0 0 0 0 0 0 0 0 0 0 0 0 0 0 0 0 0 0 0 0 0 0 0 0 0 0 0 0 0 0 0 0 0
0 0 0 0 0 0 0 0 0 0 0 0 0 0 0 0 0 0 0 0 0 0 0 0 0 0 0 0 0 0 0 0 0 0 0 0 0 0 0 0 0 0 0 0 0 0 0 0 0 0 0 0 0 0
0 0 0 0 0 0 0 0 0 0 0 0 0 0 0 0 0 0 0 0 0 0 0 0 0 0 0 0 0 0 0 0 0 0 0 0 0 0 0 0 0 0 0 0 0 0 0 0 0 0 0 0 0 0
0 0 0 0 0 0 0 0 0 0 0 0 0 0 0 0 0 -0 0 0 0 0 0 0 0 -0 0 0 0 0 0 0 0 0 0 -0 0 0 0 0 0 0 0 0 0 0 0 0 0 0 0 0 0 0
0 0 0 0 0 0 0 0 0 0 0 0 0 0 0 0 0 0 0 0 0 0 -0 0 0 0 0 0 0 0 0 0 0 0 -0 0 0 0 0 0 0 0 0 0 0 0 0 0 0 0 0 0 0 0
0 0 0 0 0 0 0 0 0 0 0 0 0 0 0 0 0 0 0 0 0 -0 0 0 0 0 0 0 0 0 0 0 0 0 0 0 0 0 0 0 0 0 0 0 0 0 0 0 0 0 0 0 0 0
0 0 0 0 0 0 0 0 0 0 0 0 0 0 0 0 0 0 0 0 0 0 0 0 0 0 0 0 0 0 0 0 0 0 0 0 0 0 0 0 0 0 0 0 0 0 0 0 0 0 0 0 0 0
0 0 0 0 0 0 0 0 0 0 0 0 0 0 0 0 0 0 0 0 0 0 0 0 0 0 0 0 0 0 0 0 0 0 0 0 0 0 0 0 0 0 0 0 0 0 0 0 0 0 0 0 0 0
0 0 0 0 0 0 0 0 0 0 0 0 0 0 0 0 0 0 0 0 0 0 0 0 0 0 0 0 0 0 0 0 0 0 0 0 0 0 0 0 0 0 0 0 0 0 0 0 0 0 0 0 0 0
0 0 0 0 0 0 0 0 0 0 0 0 0 0 0 0 0 0 0 0 0 0 0 0 0 0 1 0 0 0 0 0 0 0 0 0 0 0 0 0 0 -0 0 0 0 0 0 0 0 0 0 0 0 0
0 0 0 0 0 0 0 0 0 0 0 0 0 0 0 0 0 0 0 0 0 0 0 0 0 0 0 0 0 0 0 0 0 0 0 0 0 0 0 0 0 0 0 0 0 0 0 0 0 0 0 0 0 0
0 0 0 0 0 0 0 0 0 0 0 0 0 0 0 0 0 0 0 0 0 0 0 0 0 1 0 0 0 0 0 0 0 0 0 0 0 0 0 -0 0 0 0 0 0 0 0 0 0 0 0 0 -0 0
0 0 0 0 0 0 0 0 0 0 0 0 0 0 0 0 0 0 0 0 0 0 0 0 0 0 0 0 0 0 0 0 0 0 0 -0 0 0 -0 0 0 0 0 0 0 0 0 0 -0 0 0 0 0 -0
0 0 0 0 0 0 0 0 0 0 0 0 0 0 0 0 0 0 0 0 0 0 0 0 0 0 0 0 0 0 0 0 0 0 -0 0 0 -0 -0 0 0 0 -0 0 0 0 0 -0 0 0 -0 0 0 0
0 0 0 0 0 0 0 0 0 0 0 0 0 0 0 0 0 0 0 0 0 0 0 0 0 0 0 0 0 0 0 0 0 0 0 0 -0 -0 -0 0 0 -0 -0 0 0 0 0 -0 -0 -0 0 0 0 0
0 0 0 0 0 0 0 0 0 0 0 0 0 0 0 0 0 0 0 0 0 0 0 0 0 0 0 -0 0 0 0 0 0 -0 0 0 -0 -0 -0 0 0 0 0 0 0 0 -0 -0 0 0 0 0 0 0
0 0 0 0 0 0 0 0 0 0 0 0 0 0 0 0 0 0 0 0 0 0 0 0 0 0 -0 0 0 -0 -0 0 0 0 0 0 0 -0 0 0 0 -0 0 0 0 -0 -0 0 0 0 0 0 0 0
0 0 0 0 0 0 0 0 0 0 0 0 0 0 0 0 0 0 0 0 0 0 0 0 0 -0 0 0 0 0 0 0 -0 0 0 -0 -0 0 0 0 0 -0 0 0 0 0 0 0 0 0 -0 -0 -0 0
0 0 0 0 0 0 0 0 0 0 0 0 0 0 0 0 -0 0 0 0 0 0 -0 0 0 0 0 -0 0 0 0 0 0 0 -0 -0 -0 0 0 0 0 0 0 0 0 0 0 0 0 0 -0 -0 0 0
0 0 0 0 0 0 -0 0 0 0 0 0 0 0 0 0 0 0 0 0 0 0 -0 0 -0 0 0 0 -0 0 0 0 0 -0 0 0 0 0 0 0 -0 0 0 0 0 0 0 0 0 0 0 0 0 0
0 0 0 0 0 -0 -0 0 0 0 0 0 0 0 -0 -0 0 0 0 0 0 -0 -0 -0 -0 0 0 0 -0 0 0 0 0 0 0 0 0 -0 -0 0 0 0 0 0 0 0 0 -0 0 0 0 0 0 0
0 0 0 0 0 0 0 0 0 0 0 0 0 0 0 0 0 0 0 -0 0 0 0 0 0 0 0 0 0 0 0 0 0 0 0 -0 -0 0 0 0 0 0 0 0 0 0 0 0 0 0 0 0 0 0
Wind_Speed_500mb
40 39 39 38 35 32 27 23 25 24 24 18 19 15 12 13 15 10 10 12 8 18 16 13 14 21 31 27 14 16 13 13 8 12 15 18 13 12 8 7 16 7 11 17 15 18 2 23 13 15 11 18 28 31
32 32 31 29 25 24 21 19 19 21 24 18 18 16 12 9 10 3 6 13 17 16 15 10 8 9 11 15 17 13 11 7 19 6 8 8 12 6 13 14 13 4 5 9 11 8 13 22 22 17 20 24 30 34
29 28 28 23 15 14 14 14 19 22 24 18 18 17 14 9 8 7 9 11 18 18 27 23 18 4 4 8 7 13 4 9 7 10 15 8 6 11 12 5 12 14 12 4 10 15 15 16 16 21 25 28 34 38
28 27 26 21 15 14 16 20 19 22 25 21 20 18 16 11 9 8 10 4 13 16 12 28 9 5 9 7 8 6 6 2 3 5 18 9 13 3 7 5 10 13 7 6 9 20 15 16 22 26 30 31 34 39
27 27 28 22 24 26 26 28 27 27 29 22 23 19 18 14 11 9 11 1 8 8 13 6 13 6 7 1 3 6 13 14 10 13 11 10 12 3 9 7 12 17 12 6 12 19 10 19 25 28 31 35 33 41
25 26 26 23 23 31 33 31 32 33 32 25 23 21 19 15 9 3 8 10 20 2 11 6 17 10 4 3 5 7 8 9 12 12 9 6 15 8 9 7 12 18 15 15 11 11 14 21 23 29 27 33 40 44
25 24 23 24 24 24 29 38 40 39 34 24 21 19 20 17 15 9 3 8 12 9 9 9 15 14 12 11 12 11 10 11 10 11 3 8 11 7 11 7 22 17 12 8 5 9 19 24 29 26 32 40 39 40
25 23 23 24 24 24 24 24 25 32 27 20 15 16 18 15 12 13 11 6 7 4 10 8 8 14 21 16 11 8 11 12 6 3 5 9 19 9 3 24 19 13 5 2 9 16 22 23 31 36 38 40 42 42
25 23 23 23 23 23 23 20 22 19 16 14 11 12 12 11 10 17 9 9 13 8 10 11 9 8 25 23 16 13 7 9 10 8 9 5 7 3 21 22 14 11 6 11 16 18 23 26 31 31 37 37 39 39
23 22 23 21 21 21 20 17 17 13 14 18 25 5 12 20 13 6 4 8 10 14 12 12 29 11 30 27 11 15 12 9 9 10 13 7 3 30 27 20 14 6 5 12 19 18 22 26 27 31 35 32 33 38
21 21 21 20 20 19 18 15 11 16 22 22 10 5 5 23 12 12 15 16 18 12 19 29 35 9 24 13 13 13 2 6 6 9 7 11 12 26 27 22 12 4 5 12 10 11 17 21 25 27 33 29 32 37
21 20 19 18 17 16 14 13 16 28 20 14 8 14 13 13 15 12 10 12 14 20 18 36 32 15 21 7 10 6 4 3 5 13 6 6 18 39 29 23 12 4 7 9 10 12 15 21 23 22 25 28 31 33
18 18 18 16 14 14 14 14 29 29 26 16 5 9 12 17 6 12 22 13 12 14 20 37 22 19 13 17 9 5 6 7 7 6 7 9 36 28 18 12 6 2 2 7 6 10 18 20 17 20 20 24 26 32
14 17 17 15 12 12 14 17 35 25 16 8 12 8 12 12 14 15 18 18 22 24 30 36 29 10 18 16 6 8 9 3 7 11 17 24 34 28 17 9 5 3 15 7 6 13 23 18 16 18 20 21 27 30
13 17 18 15 13 12 14 27 34 27 9 7 10 9 17 21 22 36 26 21 25 33 35 35 27 21 15 5 4 3 8 8 9 6 21 40 31 22 12 5 3 8 13 9 6 16 16 13 15 17 19 20 22 26
13 10 14 14 12 12 17 34 27 17 5 8 12 15 15 20 7 6 21 22 24 36 43 37 9 9 5 8 10 10 6 9 9 16 34 30 22 14 10 7 10 12 11 8 12 14 5 9 11 15 14 16 21 22
14 5 8 8 14 15 31 27 16 7 9 9 12 14 19 22 8 13 22 24 30 43 16 13 9 9 9 8 14 12 7 16 38 40 31 28 17 10 9 12 14 14 12 8 11 8 4 9 9 10 14 14 18 20
12 7 7 8 16 32 29 11 8 7 14 20 19 7 14 16 13 18 17 26 31 28 15 8 15 9 8 10 13 13 29 27 29 31 24 15 12 10 12 17 16 15 12 8 8 5 8 2 8 10 12 16 18 19
8 12 11 27 35 15 10 9 7 9 21 9 15 11 11 4 15 12 14 14 30 25 31 11 8 9 5 11 23 19 27 24 18 14 18 13 12 13 17 17 17 15 10 8 2 15 12 12 10 10 11 15 21 25
4 5 31 35 16 6 8 7 8 10 8 12 10 10 15 14 19 14 16 25 20 21 13 5 5 11 6 17 22 26 25 21 16 19 33 23 16 17 16 15 18 13 14 12 11 6 10 9 10 12 12 14 16 17
13 10 28 15 13 5 5 7 10 8 6 8 11 10 10 18 10 6 19 23 17 9 6 18 16 28 39 36 33 29 22 13 8 34 26 21 16 16 13 14 15 13 9 12 11 10 8 7 6 7 10 13 17 23
15 16 13 10 2 5 7 10 5 5 7 8 12 10 8 15 6 5 8 13 6 20 34 10 22 24 21 21 20 19 16 9 11 9 9 14 14 16 13 17 12 11 11 9 8 8 7 6 7 9 10 10 11 12
18 21 7 15 9 10 6 12 3 6 4 8 6 7 7 1 8 13 9 11 8 12 20 21 15 25 27 19 16 11 8 11 10 11 15 13 15 15 19 14 13 14 14 13 12 11 10 10 9 7 8 10 13 14
20 3 5 3 7 5 11 5 6 1 3 7 6 5 10 7 10 10 6 17 25 21 24 25 20 20 12 10 11 13 11 12 8 20 13 17 20 24 18 17 16 16 15 14 12 10 8 7 2 3 8 15 18 22
5 4 5 9 7 6 8 12 8 3 7 7 9 7 11 19 10 7 6 14 22 29 27 27 23 23 22 20 17 15 17 16 16 17 18 17 19 26 19 20 18 17 16 13 10 7 3 1 7 9 9 19 16 20
2 4 4 5 4 1 2 3 7 9 12 8 5 4 4 2 8 6 12 21 29 33 34 31 25 24 23 20 20 24 21 19 19 19 22 21 28 26 23 22 20 16 11 8 8 3 2 5 2 8 7 13 15 17
4 1 2 4 8 4 3 4 3 6 5 5 4 5 7 7 7 4 5 8 29 34 32 30 26 24 18 23 20 27 24 23 10 25 26 25 21 17 23 22 19 16 10 7 4 1 12 11 2 4 6 9 9 13
6 5 5 9 7 2 1 2 3 3 3 5 3 8 3 6 3 4 4 5 7 17 26 29 27 20 23 23 26 19 24 23 26 25 21 26 25 20 19 28 23 20 14 10 5 5 9 5 5 3 2 2 3 4
2 9 11 6 2 6 6 4 0 3 0 3 3 3 12 7 6 14 6 8 12 15 23 26 23 25 26 24 23 22 20 13 34 29 33 28 27 28 26 18 11 15 21 11 17 4 9 5 2 5 1 2 8 9
5 4 4 3 3 4 8 2 2 4 8 10 2 8 14 16 7 11 11 13 11 21 26 31 27 16 27 19 23 24 20 16 16 19 31 30 23 26 24 14 15 17 16 16 9 4 5 9 8 4 3 5 15 16
2 6 4 6 6 4 12 16 15 11 7 8 11 10 18 3 8 17 7 9 21 27 22 24 30 27 22 22 20 16 23 18 19 30 22 17 25 22 22 18 13 12 9 3 9 12 14 5 5 11 17 14 15 17
13 12 5 4 7 16 31 12 9 14 13 27 22 19 18 14 6 6 8 7 8 26 22 37 25 12 23 24 21 21 22 22 25 21 27 18 23 22 22 21 17 10 3 2 2 10 6 14 10 10 15 10 11 20
9 4 10 12 3 16 12 6 7 7 1 3 6 11 8 9 5 3 5 9 12 17 12 16 20 25 20 14 23 21 24 23 22 21 21 30 23 27 19 12 6 10 10 12 16 13 11 6 11 15 16 19 18 19
Wind_Direction_500mb
286 287 288 288 288 285 279 273 276 283 278 279 284 281 304 327 338 338 203 318 318 291 325 355 0 5 345 2 29 50 162 229 242 230 261 278 274 297 310 276 286 298 275 287 291 258 212 11 39 28 12 350 343 330
290 291 293 292 288 285 272 265 272 281 279 272 277 271 282 313 334 2 5 327 310 264 339 326 294 294 329 356 336 205 25 15 9 279 218 271 293 304 268 285 48 241 10 354 14 29 118 49 36 11 349 338 334 327
289 291 293 294 280 292 274 264 277 281 281 270 266 262 263 286 308 307 281 348 326 275 267 244 232 236 274 326 343 309 13 34 23 20 328 323 333 330 298 5 292 127 67 313 350 66 28 32 19 17 353 338 327 320
287 286 287 279 251 250 247 260 280 283 284 268 260 254 249 262 271 281 252 350 319 292 275 164 163 221 252 298 312 286 25 92 312 340 274 258 275 162 262 28 299 85 170 130 271 46 14 48 9 345 329 322 318 321
284 280 285 277 243 241 252 263 274 277 280 271 258 250 240 249 255 269 255 292 278 302 317 285 156 231 179 236 271 236 219 236 231 221 244 246 253 66 278 29 280 45 47 13 56 56 14 347 338 329 327 325 346 337
289 283 280 273 272 249 252 258 266 272 278 265 256 247 233 236 235 155 183 184 221 303 285 217 108 155 101 121 136 156 170 198 230 236 243 94 76 9 278 208 86 96 82 59 27 2 351 332 332 329 354 344 334 327
285 286 281 274 269 276 266 259 260 266 273 260 254 245 228 226 220 219 353 199 230 227 261 267 149 158 189 173 153 141 164 191 218 208 294 220 122 189 268 288 109 94 81 67 349 348 334 337 334 6 352 336 326 335
283 283 277 271 268 271 279 283 279 263 258 244 241 235 216 224 231 250 259 245 199 212 264 272 104 142 186 194 162 164 165 174 203 289 101 244 138 209 277 107 124 116 111 265 1 336 329 354 1 349 343 338 344 341
279 276 280 269 269 271 276 277 277 256 229 213 202 186 187 208 209 194 230 230 194 224 289 248 224 150 174 219 157 175 233 196 114 232 199 164 208 173 135 133 142 114 48 353 329 330 2 0 350 342 343 346 340 336
279 276 279 267 267 270 270 269 273 219 181 166 149 158 202 184 211 133 153 178 194 216 237 257 248 138 174 203 149 166 192 240 178 194 103 220 203 116 131 122 109 88 12 338 331 354 353 345 338 350 349 349 341 335
274 270 269 254 261 269 264 257 244 166 154 151 198 193 97 150 160 203 200 202 189 207 212 231 256 158 188 177 191 193 178 167 240 138 215 193 183 149 145 138 142 134 340 327 27 15 347 345 12 355 347 352 347 341
263 273 257 251 266 268 251 237 183 159 162 179 201 124 135 186 211 195 211 208 197 206 197 197 216 211 157 204 76 140 232 145 275 138 227 234 118 139 153 152 149 156 315 43 28 356 351 24 14 9 3 1 359 5
249 268 237 234 251 258 236 221 183 169 170 162 187 211 191 201 183 207 196 186 201 213 158 185 177 153 138 226 115 168 232 235 85 218 224 87 133 143 141 151 175 264 95 86 14 15 42 26 23 12 27 21 34 31
254 245 224 230 242 244 225 204 172 170 175 191 207 238 208 190 209 215 213 204 200 169 167 176 163 138 167 195 159 205 193 107 227 230 222 134 142 144 152 168 176 111 106 115 51 74 52 52 46 46 40 35 28 29
249 217 219 230 235 240 211 181 175 176 195 250 236 230 213 246 205 205 205 169 145 152 161 161 161 176 152 162 210 201 146 234 223 250 110 126 135 146 154 151 201 118 129 114 72 85 74 60 56 50 32 41 33 22
204 212 233 221 221 211 188 172 178 176 244 242 242 256 256 231 242 78 139 164 160 160 172 165 145 119 181 182 185 172 227 228 162 109 123 133 139 147 133 138 119 138 131 125 110 100 98 68 48 34 29 27 20 24
177 209 215 210 209 192 164 159 163 236 246 233 244 258 279 299 318 282 189 181 165 177 164 168 118 164 205 216 180 186 226 97 104 109 109 122 130 130 135 136 146 140 139 130 124 84 93 65 28 34 31 26 22 21
172 231 230 189 167 155 154 149 198 247 236 226 247 303 220 281 349 312 100 181 182 199 133 157 128 192 191 216 193 144 105 98 89 99 103 104 122 139 139 143 143 146 135 141 160 130 99 24 53 54 47 34 30 20
190 208 232 171 153 138 147 195 226 261 234 282 213 246 266 307 285 295 175 186 69 99 128 254 181 196 217 77 100 132 123 128 132 128 116 125 136 143 139 143 151 142 137 144 90 140 87 84 75 55 47 43 39 32
148 191 167 156 159 102 170 205 221 265 254 245 252 209 236 214 246 221 187 191 137 155 175 218 117 61 179 80 119 126 128 129 144 173 141 135 139 142 148 161 158 152 142 124 121 115 119 103 79 64 58 39 34 34
115 182 159 154 188 289 256 187 216 255 281 242 270 255 203 208 242 276 216 198 187 152 131 166 124 74 71 85 86 98 103 119 48 92 126 130 141 144 148 165 165 184 203 155 137 121 100 97 95 73 56 49 45 31
135 143 150 156 171 254 253 223 234 216 208 284 306 250 176 238 166 293 315 136 145 127 168 77 137 128 96 86 96 78 127 133 94 84 100 139 149 144 157 162 181 154 136 135 127 124 116 113 95 68 46 36 21 9
123 125 139 205 228 211 260 174 154 210 157 266 225 121 136 15 160 201 229 121 159 113 147 162 95 81 121 121 116 116 139 163 163 163 144 156 158 158 158 161 160 151 144 134 128 118 108 112 62 55 24 13 355 358
138 259 282 283 213 208 158 122 271 234 197 229 152 167 140 139 220 237 151 190 175 169 183 172 166 174 168 156 171 166 166 170 152 146 167 155 152 160 162 154 149 145 144 143 131 128 126 95 79 62 37 32 12 4
304 280 242 277 251 154 155 167 182 201 220 231 184 153 147 159 188 220 194 182 183 177 184 180 193 208 204 203 207 189 174 195 187 155 159 158 148 153 155 148 142 151 158 154 145 135 122 50 19 1 356 36 22 18
310 221 165 331 9 132 358 109 155 145 131 168 139 79 34 215 195 199 198 190 185 186 186 192 197 198 206 214 208 195 179 193 186 186 172 171 171 170 161 156 161 171 171 159 131 54 337 277 325 334 114 71 46 32
296 2 28 276 298 276 241 112 23 89 111 42 78 141 182 206 201 141 123 162 197 193 195 193 194 196 204 205 205 172 183 174 154 173 168 161 176 191 186 179 174 146 169 160 114 283 324 338 280 24 39 53 50 24
248 280 316 292 312 203 88 44 116 126 103 124 229 206 225 348 60 343 326 19 139 179 194 194 195 192 196 179 168 180 185 180 168 162 156 163 153 159 156 132 141 155 169 135 104 358 335 3 359 20 48 73 21 352
231 261 241 272 290 263 182 222 74 42 25 223 239 333 354 336 135 126 186 213 186 171 177 169 170 182 173 170 174 180 184 167 167 165 157 170 172 157 150 142 157 159 166 129 168 77 353 2 56 88 118 301 311 285
276 224 235 151 188 304 20 316 227 214 161 172 176 345 317 273 217 192 214 185 163 179 183 174 160 161 182 198 165 166 174 180 166 144 188 201 175 164 160 155 161 156 164 150 156 215 76 127 98 116 347 276 297 328
85 175 263 215 262 171 118 113 137 182 195 288 293 268 242 207 110 49 104 223 167 199 185 155 166 158 163 137 160 223 212 172 161 162 184 186 174 175 174 163 166 150 124 206 235 250 222 204 204 273 261 273 327 300
177 211 251 214 154 178 170 188 249 243 197 227 241 218 211 176 69 36 54 21 114 138 136 196 186 128 155 153 162 159 163 166 147 166 170 167 166 171 174 152 149 123 161 226 49 326 261 266 270 278 301 288 318 313
215 204 189 237 236 140 172 199 221 288 336 117 63 124 101 80 74 359 356 33 146 129 132 117 136 128 163 162 137 149 170 161 170 157 157 151 151 144 142 145 180 270 269 248 229 247 234 252 282 315 326 315 302 302
Wind_Speed_850mb
40 39 39 38 35 32 27 23 25 24 24 18 19 15 12 13 15 10 10 12 8 18 16 13 14 21 31 27 14 16 13 13 8 12 15 18 13 12 8 7 16 7 11 17 15 18 2 23 13 15 11 18 28 31
32 32 31 29 25 24 21 19 19 21 24 18 18 16 12 9 10 3 6 13 17 16 15 10 8 9 11 15 17 13 11 7 19 6 8 8 12 6 13 14 13 4 5 9 11 8 13 22 22 17 20 24 30 34
29 28 28 23 15 14 14 14 19 22 24 18 18 17 14 9 8 7 9 11 18 18 27 23 18 4 4 8 7 13 4 9 7 10 15 8 6 11 12 5 12 14 12 4 10 15 15 16 16 21 25 28 34 38
28 27 26 21 15 14 16 20 19 22 25 21 20 18 16 11 9 8 10 4 13 16 12 28 9 5 9 7 8 6 6 2 3 5 18 9 13 3 7 5 10 13 7 6 9 20 15 16 22 26 30 31 34 39
27 27 28 22 24 26 26 28 27 27 29 22 23 19 18 14 11 9 11 1 8 8 13 6 13 6 7 1 3 6 13 14 10 13 11 10 12 3 9 7 12 17 12 6 12 19 10 19 25 28 31 35 33 41
25 26 26 23 23 31 33 31 32 33 32 25 23 21 19 15 9 3 8 10 20 2 11 6 17 10 4 3 5 7 8 9 12 12 9 6 15 8 9 7 12 18 15 15 11 11 14 21 23 29 27 33 40 44
25 24 23 24 24 24 29 38 40 39 34 24 21 19 20 17 15 9 3 8 12 9 9 9 15 14 12 11 12 11 10 11 10 11 3 8 11 7 11 7 22 17 12 8 5 9 19 24 29 26 32 40 39 40
25 23 23 24 24 24 24 24 25 32 27 20 15 16 18 15 12 13 11 6 7 4 10 8 8 14 21 16 11 8 11 12 6 3 5 9 19 9 3 24 19 13 5 2 9 16 22 23 31 36 38 40 42 42
25 23 23 23 23 23 23 20 22 19 16 14 11 12 12 11 10 17 9 9 13 8 10 11 9 8 25 23 16 13 7 9 10 8 9 5 7 3 21 22 14 11 6 11 16 18 23 26 31 31 37 37 39 39
23 22 23 21 21 21 20 17 17 13 14 18 25 5 12 20 13 6 4 8 10 14 12 12 29 11 30 27 11 15 12 9 9 10 13 7 3 30 27 20 14 6 5 12 19 18 22 26 27 31 35 32 33 38
21 21 21 20 20 19 18 15 11 16 22 22 10 5 5 23 12 12 15 16 18 12 19 29 35 9 24 13 13 13 2 6 6 9 7 11 12 26 27 22 12 4 5 12 10 11 17 21 25 27 33 29 32 37
21 20 19 18 17 16 14 13 16 28 20 14 8 14 13 13 15 12 10 12 14 20 18 36 32 15 21 7 10 6 4 3 5 13 6 6 18 39 29 23 12 4 7 9 10 12 15 21 23 22 25 28 31 33
18 18 18 16 14 14 14 14 29 29 26 16 5 9 12 17 6 12 22 13 12 14 20 37 22 19 13 17 9 5 6 7 7 6 7 9 36 28 18 12 6 2 2 7 6 10 18 20 17 20 20 24 26 32
14 17 17 15 12 12 14 17 35 25 16 8 12 8 12 12 14 15 18 18 22 24 30 36 29 10 18 16 6 8 9 3 7 11 17 24 34 28 17 9 5 3 15 7 6 13 23 18 16 18 20 21 27 30
13 17 18 15 13 12 14 27 34 27 9 7 10 9 17 21 22 36 26 21 25 33 35 35 27 21 15 5 4 3 8 8 9 6 21 40 31 22 12 5 3 8 13 9 6 16 16 13 15 17 19 20 22 26
13 10 14 14 12 12 17 34 27 17 5 8 12 15 15 20 7 6 21 22 24 36 43 37 9 9 5 8 10 10 6 9 9 16 34 30 22 14 10 7 10 12 11 8 12 14 5 9 11 15 14 16 21 22
14 5 8 8 14 15 31 27 16 7 9 9 12 14 19 22 8 13 22 24 30 43 16 13 9 9 9 8 14 12 7 16 38 40 31 28 17 10 9 12 14 14 12 8 11 8 4 9 9 10 14 14 18 20
12 7 7 8 16 32 29 11 8 7 14 20 19 7 14 16 13 18 17 26 31 28 15 8 15 9 8 10 13 13 29 27 29 31 24 15 12 10 12 17 16 15 12 8 8 5 8 2 8 10 12 16 18 19
8 12 11 27 35 15 10 9 7 9 21 9 15 11 11 4 15 12 14 14 30 25 31 11 8 9 5 11 23 19 27 24 18 14 18 13 12 13 17 17 17 15 10 8 2 15 12 12 10 10 11 15 21 25
4 5 31 35 16 6 8 7 8 10 8 12 10 10 15 14 19 14 16 25 20 21 13 5 5 11 6 17 22 26 25 21 16 19 33 23 16 17 16 15 18 13 14 12 11 6 10 9 10 12 12 14 16 17
13 10 28 15 13 5 5 7 10 8 6 8 11 10 10 18 10 6 19 23 17 9 6 18 16 28 39 36 33 29 22 13 8 34 26 21 16 16 13 14 15 13 9 12 11 10 8 7 6 7 10 13 17 23
15 16 13 10 2 5 7 10 5 5 7 8 12 10 8 15 6 5 8 13 6 20 34 10 22 24 21 21 20 19 16 9 11 9 9 14 14 16 13 17 12 11 11 9 8 8 7 6 7 9 10 10 11 12
18 21 7 15 9 10 6 12 3 6 4 8 6 7 7 1 8 13 9 11 8 12 20 21 15 25 27 19 16 11 8 11 10 11 15 13 15 15 19 14 13 14 14 13 12 11 10 10 9 7 8 10 13 14
20 3 5 3 7 5 11 5 6 1 3 7 6 5 10 7 10 10 6 17 25 21 24 25 20 20 12 10 11 13 11 12 8 20 13 17 20 24 18 17 16 16 15 14 12 10 8 7 2 3 8 15 18 22
5 4 5 9 7 6 8 12 8 3 7 7 9 7 11 19 10 7 6 14 22 29 27 27 23 23 22 20 17 15 17 16 16 17 18 17 19 26 19 20 18 17 16 13 10 7 3 1 7 9 9 19 16 20
2 4 4 5 4 1 2 3 7 9 12 8 5 4 4 2 8 6 12 21 29 33 34 31 25 24 23 20 20 24 21 19 19 19 22 21 28 26 23 22 20 16 11 8 8 3 2 5 2 8 7 13 15 17
4 1 2 4 8 4 3 4 3 6 5 5 4 5 7 7 7 4 5 8 29 34 32 30 26 24 18 23 20 27 24 23 10 25 26 25 21 17 23 22 19 16 10 7 4 1 12 11 2 4 6 9 9 13
6 5 5 9 7 2 1 2 3 3 3 5 3 8 3 6 3 4 4 5 7 17 26 29 27 20 23 23 26 19 24 23 26 25 21 26 25 20 19 28 23 20 14 10 5 5 9 5 5 3 2 2 3 4
2 9 11 6 2 6 6 4 0 3 0 3 3 3 12 7 6 14 6 8 12 15 23 26 23 25 26 24 23 22 20 13 34 29 33 28 27 28 26 18 11 15 21 11 17 4 9 5 2 5 1 2 8 9
5 4 4 3 3 4 8 2 2 4 8 10 2 8 14 16 7 11 11 13 11 21 26 31 27 16 27 19 23 24 20 16 16 19 31 30 23 26 24 14 15 17 16 16 9 4 5 9 8 4 3 5 15 16
2 6 4 6 6 4 12 16 15 11 7 8 11 10 18 3 8 17 7 9 21 27 22 24 30 27 22 22 20 16 23 18 19 30 22 17 25 22 22 18 13 12 9 3 9 12 14 5 5 11 17 14 15 17
13 12 5 4 7 16 31 12 9 14 13 27 22 19 18 14 6 6 8 7 8 26 22 37 25 12 23 24 21 21 22 22 25 21 27 18 23 22 22 21 17 10 3 2 2 10 6 14 10 10 15 10 11 20
9 4 10 12 3 16 12 6 7 7 1 3 6 11 8 9 5 3 5 9 12 17 12 16 20 25 20 14 23 21 24 23 22 21 21 30 23 27 19 12 6 10 10 12 16 13 11 6 11 15 16 19 18 19
Wind_Direction_850mb
286 287 288 288 288 285 279 273 276 283 278 279 284 281 304 327 338 338 203 318 318 291 325 355 0 5 345 2 29 50 162 229 242 230 261 278 274 297 310 276 286 298 275 287 291 258 212 11 39 28 12 350 343 330
290 291 293 292 288 285 272 265 272 281 279 272 277 271 282 313 334 2 5 327 310 264 339 326 294 294 329 356 336 205 25 15 9 279 218 271 293 304 268 285 48 241 10 354 14 29 118 49 36 11 349 338 334 327
289 291 293 294 280 292 274 264 277 281 281 270 266 262 263 286 308 307 281 348 326 275 267 244 232 236 274 326 343 309 13 34 23 20 328 323 333 330 298 5 292 127 67 313 350 66 28 32 19 17 353 338 327 320
287 286 287 279 251 250 247 260 280 283 284 268 260 254 249 262 271 281 252 350 319 292 275 164 163 221 252 298 312 286 25 92 312 340 274 258 275 162 262 28 299 85 170 130 271 46 14 48 9 345 329 322 318 321
284 280 285 277 243 241 252 263 274 277 280 271 258 250 240 249 255 269 255 292 278 302 317 285 156 231 179 236 271 236 219 236 231 221 244 246 253 66 278 29 280 45 47 13 56 56 14 347 338 329 327 325 346 337
289 283 280 273 272 249 252 258 266 272 278 265 256 247 233 236 235 155 183 184 221 303 285 217 108 155 101 121 136 156 170 198 230 236 243 94 76 9 278 208 86 96 82 59 27 2 351 332 332 329 354 344 334 327
285 286 281 274 269 276 266 259 260 266 273 260 254 245 228 226 220 219 353 199 230 227 261 267 149 158 189 173 153 141 164 191 218 208 294 220 122 189 268 288 109 94 81 67 349 348 334 337 334 6 352 336 326 335
283 283 277 271 268 271 279 283 279 263 258 244 241 235 216 224 231 250 259 245 199 212 264 272 104 142 186 194 162 164 165 174 203 289 101 244 138 209 277 107 124 116 111 265 1 336 329 354 1 349 343 338 344 341
279 276 280 269 269 271 276 277 277 256 229 213 202 186 187 208 209 194 230 230 194 224 289 248 224 150 174 219 157 175 233 196 114 232 199 164 208 173 135 133 142 114 48 353 329 330 2 0 350 342 343 346 340 336
279 276 279 267 267 270 270 269 273 219 181 166 149 158 202 184 211 133 153 178 194 216 237 257 248 138 174 203 149 166 192 240 178 194 103 220 203 116 131 122 109 88 12 338 331 354 353 345 338 350 349 349 341 335
274 270 269 254 261 269 264 257 244 166 154 151 198 193 97 150 160 203 200 202 189 207 212 231 256 158 188 177 191 193 178 167 240 138 215 193 183 149 145 138 142 134 340 327 27 15 347 345 12 355 347 352 347 341
263 273 257 251 266 268 251 237 183 159 162 179 201 124 135 186 211 195 211 208 197 206 197 197 216 211 157 204 76 140 232 145 275 138 227 234 118 139 153 152 149 156 315 43 28 356 351 24 14 9 3 1 359 5
249 268 237 234 251 258 236 221 183 169 170 162 187 211 191 201 183 207 196 186 201 213 158 185 177 153 138 226 115 168 232 235 85 218 224 87 133 143 141 151 175 264 95 86 14 15 42 26 23 12 27 21 34 31
254 245 224 230 242 244 225 204 172 170 175 191 207 238 208 190 209 215 213 204 200 169 167 176 163 138 167 195 159 205 193 107 227 230 222 134 142 144 152 168 176 111 106 115 51 74 52 52 46 46 40 35 28 29
249 217 219 230 235 240 211 181 175 176 195 250 236 230 213 246 205 205 205 169 145 152 161 161 161 176 152 162 210 201 146 234 223 250 110 126 135 146 154 151 201 118 129 114 72 85 74 60 56 50 32 41 33 22
204 212 233 221 221 211 188 172 178 176 244 242 242 256 256 231 242 78 139 164 160 160 172 165 145 119 181 182 185 172 227 228 162 109 123 133 139 147 133 138 119 138 131 125 110 100 98 68 48 34 29 27 20 24
177 209 215 210 209 192 164 159 163 236 246 233 244 258 279 299 318 282 189 181 165 177 164 168 118 164 205 216 180 186 226 97 104 109 109 122 130 130 135 136 146 140 139 130 124 84 93 65 28 34 31 26 22 21
172 231 230 189 167 155 154 149 198 247 236 226 247 303 220 281 349 312 100 181 182 199 133 157 128 192 191 216 193 144 105 98 89 99 103 104 122 139 139 143 143 146 135 141 160 130 99 24 53 54 47 34 30 20
190 208 232 171 153 138 147 195 226 261 234 282 213 246 266 307 285 295 175 186 69 99 128 254 181 196 217 77 100 132 123 128 132 128 116 125 136 143 139 143 151 142 137 144 90 140 87 84 75 55 47 43 39 32
148 191 167 156 159 102 170 205 221 265 254 245 252 209 236 214 246 221 187 191 137 155 175 218 117 61 179 80 119 126 128 129 144 173 141 135 139 142 148 161 158 152 142 124 121 115 119 103 79 64 58 39 34 34
115 182 159 154 188 289 256 187 216 255 281 242 270 255 203 208 242 276 216 198 187 152 131 166 124 74 71 85 86 98 103 119 48 92 126 130 141 144 148 165 165 184 203 155 137 121 100 97 95 73 56 49 45 31
135 143 150 156 171 254 253 223 234 216 208 284 306 250 176 238 166 293 315 136 145 127 168 77 137 128 96 86 96 78 127 133 94 84 100 139 149 144 157 162 181 154 136 135 127 124 116 113 95 68 46 36 21 9
123 125 139 205 228 211 260 174 154 210 157 266 225 121 136 15 160 201 229 121 159 113 147 162 95 81 121 121 116 116 139 163 163 163 144 156 158 158 158 161 160 151 144 134 128 118 108 112 62 55 24 13 355 358
138 259 282 283 213 208 158 122 271 234 197 229 152 167 140 139 220 237 151 190 175 169 183 172 166 174 168 156 171 166 166 170 152 146 167 155 152 160 162 154 149 145 144 143 131 128 126 95 79 62 37 32 12 4
304 280 242 277 251 154 155 167 182 201 220 231 184 153 147 159 188 220 194 182 183 177 184 180 193 208 204 203 207 189 174 195 187 155 159 158 148 153 155 148 142 151 158 154 145 135 122 50 19 1 356 36 22 18
310 221 165 331 9 132 358 109 155 145 131 168 139 79 34 215 195 199 198 190 185 186 186 192 197 198 206 214 208 195 179 193 186 186 172 171 171 170 161 156 161 171 171 159 131 54 337 277 325 334 114 71 46 32
296 2 28 276 298 276 241 112 23 89 111 42 78 141 182 206 201 141 123 162 197 193 195 193 194 196 204 205 205 172 183 174 154 173 168 161 176 191 186 179 174 146 169 160 114 283 324 338 280 24 39 53 50 24
248 280 316 292 312 203 88 44 116 126 103 124 229 206 225 348 60 343 326 19 139 179 194 194 195 192 196 179 168 180 185 180 168 162 156 163 153 159 156 132 141 155 169 135 104 358 335 3 359 20 48 73 21 352
231 261 241 272 290 263 182 222 74 42 25 223 239 333 354 336 135 126 186 213 186 171 177 169 170 182 173 170 174 180 184 167 167 165 157 170 172 157 150 142 157 159 166 129 168 77 353 2 56 88 118 301 311 285
276 224 235 151 188 304 20 316 227 214 161 172 176 345 317 273 217 192 214 185 163 179 183 174 160 161 182 198 165 166 174 180 166 144 188 201 175 164 160 155 161 156 164 150 156 215 76 127 98 116 347 276 297 328
85 175 263 215 262 171 118 113 137 182 195 288 293 268 242 207 110 49 104 223 167 199 185 155 166 158 163 137 160 223 212 172 161 162 184 186 174 175 174 163 166 150 124 206 235 250 222 204 204 273 261 273 327 300
177 211 251 214 154 178 170 188 249 243 197 227 241 218 211 176 69 36 54 21 114 138 136 196 186 128 155 153 162 159 163 166 147 166 170 167 166 171 174 152 149 123 161 226 49 326 261 266 270 278 301 288 318 313
215 204 189 237 236 140 172 199 221 288 336 117 63 124 101 80 74 359 356 33 146 129 132 117 136 128 163 162 137 149 170 161 170 157 157 151 151 144 142 145 180 270 269 248 229 247 234 252 282 315 326 315 302 302